This demonstration page uses our WeatherBlox Daily Observations layout. Learn more.

Left ArrowRight Arrow

34.02893, -84.19858

Hourly Observations for October 21, 2015

Temp ( °F °C ) Dew Point ( °F °C ) Humidity (%) Winds ( mph kmh ) Pressure ( in mb ) Visibility ( mi km ) Precip ( " mm )
12:53 am 00:53 Clear 45 7.2 44 6.7 97 97 Calm 30.33 1027 10 16 0.00 0.00
1:53 am 01:53 Clear 44 6.7 43 6.1 96 96 Calm 30.32 1027 10 16 0.00 0.00
2:53 am 02:53 Clear 44 6.7 43 6.1 96 96 Calm 30.32 1027 10 16 0.00 0.00
3:53 am 03:53 Clear 44 6.7 42 5.6 93 93 Calm 30.32 1027 10 16 0.00 0.00
4:53 am 04:53 Clear 45 7.2 43 6.1 93 93 Calm 30.31 1027 10 16 0.00 0.00
5:53 am 05:53 Clear 43 6.1 42 5.6 97 97 NNE 3 6 30.33 1027 10 16 0.00 0.00
6:53 am 06:53 Clear 44 6.7 42 5.6 93 93 Calm 30.35 1028 10 16 0.00 0.00
7:53 am 07:53 Sunny 43 6.1 42 5.6 97 97 Calm 30.38 1029 7 11 0.00 0.00
8:53 am 08:53 Sunny 50 10 48 8.9 93 93 Calm 30.39 1029 9 14 0.00 0.00
9:53 am 09:53 Sunny 59 15 47 8.3 64 64 NE 3 6 30.41 1030 10 16 0.00 0.00
10:53 am 10:53 Sunny 63 17.2 46 7.8 54 54 Calm 30.40 1030 10 16 0.00 0.00
11:53 am 11:53 Sunny 66 18.9 44 6.7 45 45 Calm 30.39 1029 10 16 0.00 0.00
12:53 pm 12:53 Sunny 71 21.7 48 8.9 44 44 Calm 30.37 1029 10 16 0.00 0.00
1:53 pm 13:53 Sunny 73 22.8 49 9.4 43 43 VRB 3 6 30.34 1028 10 16 0.00 0.00
2:53 pm 14:53 Sunny 75 23.9 49 9.4 40 40 NNE 5 7 30.31 1026 10 16 0.00 0.00
3:53 pm 15:53 Sunny 75 23.9 49 9.4 40 40 W 5 7 30.29 1026 10 16 0.00 0.00
4:53 pm 16:53 Sunny 75 23.9 47 8.3 37 37 Calm 30.28 1025 10 16 0.00 0.00
5:53 pm 17:53 Sunny 75 23.9 47 8.3 37 37 Calm 30.28 1025 10 16 0.00 0.00
6:53 pm 18:53 Sunny 64 17.8 53 11.7 68 68 Calm 30.30 1026 10 16 0.00 0.00
7:53 pm 19:53 Clear 59 15 52 11.1 78 78 Calm 30.32 1027 10 16 0.00 0.00
8:53 pm 20:53 Clear 54 12.2 52 11.1 93 93 Calm 30.32 1027 10 16 0.00 0.00
9:53 pm 21:53 Clear 54 12.2 51 10.6 90 90 Calm 30.32 1027 10 16 0.00 0.00
10:53 pm 22:53 Clear 52 11.1 51 10.6 97 97 Calm 30.32 1027 10 16 0.00 0.00
11:53 pm 23:53 Clear 51 10.6 51 10.6 100 100 Calm 30.31 1027 10 16 0.00 0.00

Powered by AerisWeather